User: anonymous   Login
Location: Maiden
(35.5760°N, 81.2120°W)
Time: 11:31:00
(UTC-05:00)
Language:

Cosmos 2151 - Orbit

View from above orbital plane
View from above orbital plane
View from above satellite
View from above satellite

Ground track
Ground track

The orbit data is extracted from the following two-line orbital elements,

1 21422U 91042A   15061.21203577  .00001497  00000-0  14909-3 0  9994
2 21422 082.5036 323.4673 0013550 206.5720 153.4806 14.90918543283599
Epoch (UTC): 02 March 2015 05:05:19
Eccentricity: 0.0013550
inclination: 82.5036°
perigee height: 585 km
apogee height: 604 km
right ascension of ascending node: 323.4673°
argument of perigee: 206.5720°
revolutions per day: 14.90918543
mean anomaly at epoch: 153.4806°
orbit number at epoch: 28359

The dashed part of the orbit path shows where the satellite is in the earth's shadow,  

DLR